owner,sensor,date,latitude,longitude,vertical_datum,sea_water_temperature,qcFlag 
TABS,ioos:station:wmo:42044:1,2004-08-18T12:00:00Z,26.1914,-97.0507,-2.0,29.11,11111222 
TABS,ioos:station:wmo:42044:1,2004-08-18T12:30:00Z,26.1914,-97.0507,-2.0,29.44,11111222 
TABS,ioos:station:wmo:42044:1,2004-08-18T13:00:00Z,26.1914,-97.0507,-2.0,29.45,11111222 
TABS,ioos:station:wmo:42044:1,2004-08-18T13:30:00Z,26.1914,-97.0507,-2.0,29.45,11111222 
TABS,ioos:station:wmo:42044:1,2004-08-18T14:00:00Z,26.1914,-97.0507,-2.0,29.46,11111222 
TABS,ioos:station:wmo:42044:1,2004-08-18T14:30:00Z,26.1914,-97.0507,-2.0,29.47,11111222 
TABS,ioos:station:wmo:42044:1,2004-08-18T15:00:00Z,26.1914,-97.0507,-2.0,29.48,11111222 
TABS,ioos:station:wmo:42044:1,2004-08-18T15:30:00Z,26.1914,-97.0507,-2.0,29.5,11111222 
TABS,ioos:station:wmo:42044:1,2004-08-18T16:00:00Z,26.1914,-97.0507,-2.0,29.52,11111222 
TABS,ioos:station:wmo:42044:1,2004-08-18T16:30:00Z,26.1914,-97.0507,-2.0,29.53,11111222 
TABS,ioos:station:wmo:42044:1,2004-08-18T17:00:00Z,26.1914,-97.0507,-2.0,29.55,11111222 
TABS,ioos:station:wmo:42044:1,2004-08-18T17:30:00Z,26.1914,-97.0507,-2.0,29.57,11111222 
TABS,ioos:station:wmo:42044:1,2004-08-18T18:00:00Z,26.1914,-97.0507,-2.0,29.58,11111222 
TABS,ioos:station:wmo:42044:1,2004-08-18T18:30:00Z,26.1914,-97.0507,-2.0,29.61,11111222 
TABS,ioos:station:wmo:42044:1,2004-08-18T19:00:00Z,26.1914,-97.0507,-2.0,29.62,11111222 
TABS,ioos:station:wmo:42044:1,2004-08-18T19:30:00Z,26.1914,-97.0507,-2.0,29.6,11111222 
TABS,ioos:station:wmo:42044:1,2004-08-18T20:00:00Z,26.1914,-97.0507,-2.0,29.59,11111222 
TABS,ioos:station:wmo:42044:1,2004-08-18T20:30:00Z,26.1914,-97.0507,-2.0,29.6,11111222 
TABS,ioos:station:wmo:42044:1,2004-08-18T21:00:00Z,26.1914,-97.0507,-2.0,29.6,11111222 
TABS,ioos:station:wmo:42044:1,2004-08-18T21:30:00Z,26.1914,-97.0507,-2.0,29.6,11111222 
TABS,ioos:station:wmo:42044:1,2004-08-18T22:00:00Z,26.1914,-97.0507,-2.0,29.6,11111222 
TABS,ioos:station:wmo:42044:1,2004-08-18T22:30:00Z,26.1914,-97.0507,-2.0,29.61,11111222 
TABS,ioos:station:wmo:42044:1,2004-08-18T23:00:00Z,26.1914,-97.0507,-2.0,29.6,11111222 
TABS,ioos:station:wmo:42044:1,2004-08-18T23:30:00Z,26.1914,-97.0507,-2.0,29.59,11111222 
TABS,ioos:station:wmo:42044:1,2004-08-19T00:00:00Z,26.1914,-97.0507,-2.0,29.58,11111222 
TABS,ioos:station:wmo:42044:1,2004-08-19T00:30:00Z,26.1914,-97.0507,-2.0,29.57,11111222 
TABS,ioos:station:wmo:42044:1,2004-08-19T01:00:00Z,26.1914,-97.0507,-2.0,29.56,11111222 
TABS,ioos:station:wmo:42044:1,2004-08-19T01:30:00Z,26.1914,-97.0507,-2.0,29.55,11111222 
TABS,ioos:station:wmo:42044:1,2004-08-19T02:00:00Z,26.1914,-97.0507,-2.0,29.54,11111222 
TABS,ioos:station:wmo:42044:1,2004-08-19T02:30:00Z,26.1914,-97.0507,-2.0,29.53,11111222 
TABS,ioos:station:wmo:42044:1,2004-08-19T03:00:00Z,26.1914,-97.0507,-2.0,29.52,11111222 
TABS,ioos:station:wmo:42044:1,2004-08-19T03:30:00Z,26.1914,-97.0507,-2.0,29.5,11111222 
TABS,ioos:station:wmo:42044:1,2004-08-19T04:00:00Z,26.1914,-97.0507,-2.0,29.5,11111222 
TABS,ioos:station:wmo:42044:1,2004-08-19T04:30:00Z,26.1914,-97.0507,-2.0,29.49,11111222 
TABS,ioos:station:wmo:42044:1,2004-08-19T05:00:00Z,26.1914,-97.0507,-2.0,29.49,11111222 
TABS,ioos:station:wmo:42044:1,2004-08-19T05:30:00Z,26.1914,-97.0507,-2.0,29.47,11111222 
TABS,ioos:station:wmo:42044:1,2004-08-19T06:00:00Z,26.1914,-97.0507,-2.0,29.47,11111222 
TABS,ioos:station:wmo:42044:1,2004-08-19T06:30:00Z,26.1914,-97.0507,-2.0,29.45,11111222 
TABS,ioos:station:wmo:42044:1,2004-08-19T07:00:00Z,26.1914,-97.0507,-2.0,29.44,11111222 
TABS,ioos:station:wmo:42044:1,2004-08-19T07:30:00Z,26.1914,-97.0507,-2.0,29.42,11111222 
TABS,ioos:station:wmo:42044:1,2004-08-19T08:00:00Z,26.1914,-97.0507,-2.0,29.42,11111222 
TABS,ioos:station:wmo:42044:1,2004-08-19T08:30:00Z,26.1914,-97.0507,-2.0,29.42,11111222 
TABS,ioos:station:wmo:42044:1,2004-08-19T09:00:00Z,26.1914,-97.0507,-2.0,29.4,11111222 
TABS,ioos:station:wmo:42044:1,2004-08-19T09:30:00Z,26.1914,-97.0507,-2.0,29.4,11111222 
TABS,ioos:station:wmo:42044:1,2004-08-19T10:00:00Z,26.1914,-97.0507,-2.0,29.38,11111222 
TABS,ioos:station:wmo:42044:1,2004-08-19T10:30:00Z,26.1914,-97.0507,-2.0,29.38,11111222 
TABS,ioos:station:wmo:42044:1,2004-08-19T11:30:00Z,26.1914,-97.0507,-2.0,29.37,11111222 
TABS,ioos:station:wmo:42044:1,2004-08-19T12:00:00Z,26.1914,-97.0507,-2.0,29.37,11111222 
TABS,ioos:station:wmo:42044:1,2004-08-19T12:30:00Z,26.1914,-97.0507,-2.0,29.39,11111222 
TABS,ioos:station:wmo:42044:1,2004-08-19T13:00:00Z,26.1914,-97.0507,-2.0,29.37,11111222 
TABS,ioos:station:wmo:42044:1,2004-08-19T13:30:00Z,26.1914,-97.0507,-2.0,29.37,11111222 
TABS,ioos:station:wmo:42044:1,2004-08-19T14:00:00Z,26.1914,-97.0507,-2.0,29.37,11111222 
TABS,ioos:station:wmo:42044:1,2004-08-19T14:30:00Z,26.1914,-97.0507,-2.0,29.37,11111222 
TABS,ioos:station:wmo:42044:1,2004-08-19T15:30:00Z,26.1914,-97.0507,-2.0,29.41,11111222 
TABS,ioos:station:wmo:42044:1,2004-08-19T16:30:00Z,26.1914,-97.0507,-2.0,29.43,11111222 
TABS,ioos:station:wmo:42044:1,2004-08-19T17:00:00Z,26.1914,-97.0507,-2.0,29.44,11111222 
TABS,ioos:station:wmo:42044:1,2004-08-19T17:30:00Z,26.1914,-97.0507,-2.0,29.47,11111222 
TABS,ioos:station:wmo:42044:1,2004-08-19T18:00:00Z,26.1914,-97.0507,-2.0,29.48,11111222 
TABS,ioos:station:wmo:42044:1,2004-08-19T18:30:00Z,26.1914,-97.0507,-2.0,29.49,11111222 
TABS,ioos:station:wmo:42044:1,2004-08-19T19:00:00Z,26.1914,-97.0507,-2.0,29.58,11111222 
TABS,ioos:station:wmo:42044:1,2004-08-19T19:30:00Z,26.1914,-97.0507,-2.0,29.58,11111222 
TABS,ioos:station:wmo:42044:1,2004-08-19T20:30:00Z,26.1914,-97.0507,-2.0,29.55,11111222 
TABS,ioos:station:wmo:42044:1,2004-08-19T21:00:00Z,26.1914,-97.0507,-2.0,29.59,11111222 
TABS,ioos:station:wmo:42044:1,2004-08-19T21:30:00Z,26.1914,-97.0507,-2.0,29.58,11111222 
TABS,ioos:station:wmo:42044:1,2004-08-19T22:00:00Z,26.1914,-97.0507,-2.0,29.55,11111222 
TABS,ioos:station:wmo:42044:1,2004-08-19T22:30:00Z,26.1914,-97.0507,-2.0,29.55,11111222 
TABS,ioos:station:wmo:42044:1,2004-08-19T23:00:00Z,26.1914,-97.0507,-2.0,29.52,11111222 
TABS,ioos:station:wmo:42044:1,2004-08-19T23:30:00Z,26.1914,-97.0507,-2.0,29.51,11111222 
TABS,ioos:station:wmo:42044:1,2004-08-20T00:00:00Z,26.1914,-97.0507,-2.0,29.51,11111222 
TABS,ioos:station:wmo:42044:1,2004-08-20T00:30:00Z,26.1914,-97.0507,-2.0,29.49,11111222 
TABS,ioos:station:wmo:42044:1,2004-08-20T01:00:00Z,26.1914,-97.0507,-2.0,29.48,11111222 
TABS,ioos:station:wmo:42044:1,2004-08-20T01:30:00Z,26.1914,-97.0507,-2.0,29.45,11111222 
TABS,ioos:station:wmo:42044:1,2004-08-20T02:00:00Z,26.1914,-97.0507,-2.0,29.43,11111222 
TABS,ioos:station:wmo:42044:1,2004-08-20T02:30:00Z,26.1914,-97.0507,-2.0,29.42,11111222 
TABS,ioos:station:wmo:42044:1,2004-08-20T03:00:00Z,26.1914,-97.0507,-2.0,29.39,11111222 
TABS,ioos:station:wmo:42044:1,2004-08-20T03:30:00Z,26.1914,-97.0507,-2.0,29.38,11111222 
TABS,ioos:station:wmo:42044:1,2004-08-20T04:00:00Z,26.1914,-97.0507,-2.0,29.38,11111222 
TABS,ioos:station:wmo:42044:1,2004-08-20T04:30:00Z,26.1914,-97.0507,-2.0,29.37,11111222 
TABS,ioos:station:wmo:42044:1,2004-08-20T05:00:00Z,26.1914,-97.0507,-2.0,29.33,11111222 
TABS,ioos:station:wmo:42044:1,2004-08-20T05:30:00Z,26.1914,-97.0507,-2.0,29.32,11111222 
TABS,ioos:station:wmo:42044:1,2004-08-20T06:00:00Z,26.1914,-97.0507,-2.0,29.29,11111222 
TABS,ioos:station:wmo:42044:1,2004-08-20T06:30:00Z,26.1914,-97.0507,-2.0,29.27,11111222 
TABS,ioos:station:wmo:42044:1,2004-08-20T07:00:00Z,26.1914,-97.0507,-2.0,29.22,11111222 
TABS,ioos:station:wmo:42044:1,2004-08-20T07:30:00Z,26.1914,-97.0507,-2.0,29.21,11111222 
TABS,ioos:station:wmo:42044:1,2004-08-20T08:00:00Z,26.1914,-97.0507,-2.0,29.22,11111222 
TABS,ioos:station:wmo:42044:1,2004-08-20T08:30:00Z,26.1914,-97.0507,-2.0,29.23,11111222 
TABS,ioos:station:wmo:42044:1,2004-08-20T09:00:00Z,26.1914,-97.0507,-2.0,29.23,11111222 
TABS,ioos:station:wmo:42044:1,2004-08-20T09:30:00Z,26.1914,-97.0507,-2.0,29.21,11111222 
TABS,ioos:station:wmo:42044:1,2004-08-20T10:30:00Z,26.1914,-97.0507,-2.0,29.15,11111222 
TABS,ioos:station:wmo:42044:1,2004-08-20T11:00:00Z,26.1914,-97.0507,-2.0,29.13,11111222 
TABS,ioos:station:wmo:42044:1,2004-08-20T12:00:00Z,26.1914,-97.0507,-2.0,29.11,11111222 
TABS,ioos:station:wmo:42044:1,2004-08-20T12:30:00Z,26.1914,-97.0507,-2.0,29.1,11111222 
TABS,ioos:station:wmo:42044:1,2004-08-20T13:00:00Z,26.1914,-97.0507,-2.0,29.09,11111222 
TABS,ioos:station:wmo:42044:1,2004-08-20T13:30:00Z,26.1914,-97.0507,-2.0,29.08,11111222 
TABS,ioos:station:wmo:42044:1,2004-08-20T14:00:00Z,26.1914,-97.0507,-2.0,29.08,11111222 
TABS,ioos:station:wmo:42044:1,2004-08-20T14:30:00Z,26.1914,-97.0507,-2.0,29.07,11111222 
TABS,ioos:station:wmo:42044:1,2004-08-20T15:00:00Z,26.1914,-97.0507,-2.0,29.05,11111222 
TABS,ioos:station:wmo:42044:1,2004-08-20T15:30:00Z,26.1914,-97.0507,-2.0,29.06,11111222 
TABS,ioos:station:wmo:42044:1,2004-08-20T16:00:00Z,26.1914,-97.0507,-2.0,29.08,11111222 
TABS,ioos:station:wmo:42044:1,2004-08-20T16:30:00Z,26.1914,-97.0507,-2.0,29.07,11111222 
TABS,ioos:station:wmo:42044:1,2004-08-20T17:00:00Z,26.1914,-97.0507,-2.0,29.09,11111222 
TABS,ioos:station:wmo:42044:1,2004-08-20T17:30:00Z,26.1914,-97.0507,-2.0,29.12,11111222 
TABS,ioos:station:wmo:42044:1,2004-08-20T18:00:00Z,26.1914,-97.0507,-2.0,29.18,11111222 
TABS,ioos:station:wmo:42044:1,2004-08-20T18:30:00Z,26.1914,-97.0507,-2.0,29.2,11111222 
TABS,ioos:station:wmo:42044:1,2004-08-20T19:00:00Z,26.1914,-97.0507,-2.0,29.22,11111222 
TABS,ioos:station:wmo:42044:1,2004-08-20T19:30:00Z,26.1914,-97.0507,-2.0,29.28,11111222 
TABS,ioos:station:wmo:42044:1,2004-08-20T20:00:00Z,26.1914,-97.0507,-2.0,29.31,11111222 
TABS,ioos:station:wmo:42044:1,2004-08-20T20:30:00Z,26.1914,-97.0507,-2.0,29.38,11111222 
TABS,ioos:station:wmo:42044:1,2004-08-20T21:00:00Z,26.1914,-97.0507,-2.0,29.41,11111222 
TABS,ioos:station:wmo:42044:1,2004-08-20T21:30:00Z,26.1914,-97.0507,-2.0,29.44,11111222 
TABS,ioos:station:wmo:42044:1,2004-08-20T22:00:00Z,26.1914,-97.0507,-2.0,29.45,11111222 
TABS,ioos:station:wmo:42044:1,2004-08-20T22:30:00Z,26.1914,-97.0507,-2.0,29.42,11111222 
TABS,ioos:station:wmo:42044:1,2004-08-20T23:00:00Z,26.1914,-97.0507,-2.0,29.42,11111222 
TABS,ioos:station:wmo:42044:1,2004-08-20T23:30:00Z,26.1914,-97.0507,-2.0,29.41,11111222 
TABS,ioos:station:wmo:42044:1,2004-08-21T00:00:00Z,26.1914,-97.0507,-2.0,29.39,11111222 
TABS,ioos:station:wmo:42044:1,2004-08-21T00:30:00Z,26.1914,-97.0507,-2.0,29.36,11111222 
TABS,ioos:station:wmo:42044:1,2004-08-21T01:00:00Z,26.1914,-97.0507,-2.0,29.33,11111222 
TABS,ioos:station:wmo:42044:1,2004-08-21T01:30:00Z,26.1914,-97.0507,-2.0,29.32,11111222 
TABS,ioos:station:wmo:42044:1,2004-08-21T02:00:00Z,26.1914,-97.0507,-2.0,29.29,11111222 
TABS,ioos:station:wmo:42044:1,2004-08-21T02:30:00Z,26.1914,-97.0507,-2.0,29.29,11111222 
TABS,ioos:station:wmo:42044:1,2004-08-21T03:00:00Z,26.1914,-97.0507,-2.0,29.27,11111222 
TABS,ioos:station:wmo:42044:1,2004-08-21T03:30:00Z,26.1914,-97.0507,-2.0,29.25,11111222 
TABS,ioos:station:wmo:42044:1,2004-08-21T04:00:00Z,26.1914,-97.0507,-2.0,29.23,11111222 
TABS,ioos:station:wmo:42044:1,2004-08-21T04:30:00Z,26.1914,-97.0507,-2.0,29.22,11111222 
TABS,ioos:station:wmo:42044:1,2004-08-21T05:00:00Z,26.1914,-97.0507,-2.0,29.21,11111222 
TABS,ioos:station:wmo:42044:1,2004-08-21T05:30:00Z,26.1914,-97.0507,-2.0,29.21,11111222 
TABS,ioos:station:wmo:42044:1,2004-08-21T06:00:00Z,26.1914,-97.0507,-2.0,29.2,11111222 
TABS,ioos:station:wmo:42044:1,2004-08-21T06:30:00Z,26.1914,-97.0507,-2.0,29.19,11111222 
TABS,ioos:station:wmo:42044:1,2004-08-21T07:00:00Z,26.1914,-97.0507,-2.0,29.16,11111222 
TABS,ioos:station:wmo:42044:1,2004-08-21T07:30:00Z,26.1914,-97.0507,-2.0,29.15,11111222 
TABS,ioos:station:wmo:42044:1,2004-08-21T08:00:00Z,26.1914,-97.0507,-2.0,29.16,11111222 
TABS,ioos:station:wmo:42044:1,2004-08-21T08:30:00Z,26.1914,-97.0507,-2.0,29.14,11111222 
TABS,ioos:station:wmo:42044:1,2004-08-21T09:00:00Z,26.1914,-97.0507,-2.0,29.13,11111222 
TABS,ioos:station:wmo:42044:1,2004-08-21T09:30:00Z,26.1914,-97.0507,-2.0,29.13,11111222 
TABS,ioos:station:wmo:42044:1,2004-08-21T10:00:00Z,26.1914,-97.0507,-2.0,29.11,11111222 
TABS,ioos:station:wmo:42044:1,2004-08-21T10:30:00Z,26.1914,-97.0507,-2.0,29.08,11111222 
TABS,ioos:station:wmo:42044:1,2004-08-21T11:30:00Z,26.1914,-97.0507,-2.0,29.03,11111222 
TABS,ioos:station:wmo:42044:1,2004-08-21T12:00:00Z,26.1914,-97.0507,-2.0,29.05,11111222 
TABS,ioos:station:wmo:42044:1,2004-08-21T12:30:00Z,26.1914,-97.0507,-2.0,29.02,11111222 
TABS,ioos:station:wmo:42044:1,2004-08-21T13:00:00Z,26.1914,-97.0507,-2.0,29.01,11111222 
TABS,ioos:station:wmo:42044:1,2004-08-21T13:30:00Z,26.1914,-97.0507,-2.0,29.01,11111222 
TABS,ioos:station:wmo:42044:1,2004-08-21T14:00:00Z,26.1914,-97.0507,-2.0,29.07,11111222 
TABS,ioos:station:wmo:42044:1,2004-08-21T14:30:00Z,26.1914,-97.0507,-2.0,29.11,11111222 
TABS,ioos:station:wmo:42044:1,2004-08-21T15:00:00Z,26.1914,-97.0507,-2.0,29.13,11111222 
TABS,ioos:station:wmo:42044:1,2004-08-21T15:30:00Z,26.1914,-97.0507,-2.0,29.18,11111222 
TABS,ioos:station:wmo:42044:1,2004-08-21T16:00:00Z,26.1914,-97.0507,-2.0,29.18,11111222 
TABS,ioos:station:wmo:42044:1,2004-08-21T16:30:00Z,26.1914,-97.0507,-2.0,29.2,11111222 
TABS,ioos:station:wmo:42044:1,2004-08-21T17:00:00Z,26.1914,-97.0507,-2.0,29.23,11111222 
TABS,ioos:station:wmo:42044:1,2004-08-21T17:30:00Z,26.1914,-97.0507,-2.0,29.26,11111222 
TABS,ioos:station:wmo:42044:1,2004-08-21T18:00:00Z,26.1914,-97.0507,-2.0,29.27,11111222 
TABS,ioos:station:wmo:42044:1,2004-08-21T18:30:00Z,26.1914,-97.0507,-2.0,29.32,11111222 
TABS,ioos:station:wmo:42044:1,2004-08-21T19:00:00Z,26.1914,-97.0507,-2.0,29.39,11111222 
TABS,ioos:station:wmo:42044:1,2004-08-21T19:30:00Z,26.1914,-97.0507,-2.0,29.41,11111222 
TABS,ioos:station:wmo:42044:1,2004-08-21T20:00:00Z,26.1914,-97.0507,-2.0,29.43,11111222 
TABS,ioos:station:wmo:42044:1,2004-08-21T20:30:00Z,26.1914,-97.0507,-2.0,29.48,11111222 
TABS,ioos:station:wmo:42044:1,2004-08-21T21:00:00Z,26.1914,-97.0507,-2.0,29.5,11111222 
TABS,ioos:station:wmo:42044:1,2004-08-21T21:30:00Z,26.1914,-97.0507,-2.0,29.49,11111222 
TABS,ioos:station:wmo:42044:1,2004-08-21T22:00:00Z,26.1914,-97.0507,-2.0,29.52,11111222 
TABS,ioos:station:wmo:42044:1,2004-08-21T22:30:00Z,26.1914,-97.0507,-2.0,29.52,11111222 
TABS,ioos:station:wmo:42044:1,2004-08-21T23:00:00Z,26.1914,-97.0507,-2.0,29.5,11111222 
TABS,ioos:station:wmo:42044:1,2004-08-21T23:30:00Z,26.1914,-97.0507,-2.0,29.5,11111222 
TABS,ioos:station:wmo:42044:1,2004-08-22T00:00:00Z,26.1914,-97.0507,-2.0,29.47,11111222 
TABS,ioos:station:wmo:42044:1,2004-08-22T00:30:00Z,26.1914,-97.0507,-2.0,29.44,11111222 
TABS,ioos:station:wmo:42044:1,2004-08-22T01:00:00Z,26.1914,-97.0507,-2.0,29.45,11111222 
TABS,ioos:station:wmo:42044:1,2004-08-22T01:30:00Z,26.1914,-97.0507,-2.0,29.46,11111222 
TABS,ioos:station:wmo:42044:1,2004-08-22T02:00:00Z,26.1914,-97.0507,-2.0,29.48,11111222 
TABS,ioos:station:wmo:42044:1,2004-08-22T02:30:00Z,26.1914,-97.0507,-2.0,29.47,11111222 
TABS,ioos:station:wmo:42044:1,2004-08-22T03:00:00Z,26.1914,-97.0507,-2.0,29.47,11111222 
TABS,ioos:station:wmo:42044:1,2004-08-22T03:30:00Z,26.1914,-97.0507,-2.0,29.47,11111222 
TABS,ioos:station:wmo:42044:1,2004-08-22T04:00:00Z,26.1914,-97.0507,-2.0,29.48,11111222 
TABS,ioos:station:wmo:42044:1,2004-08-22T04:30:00Z,26.1914,-97.0507,-2.0,29.49,11111222 
TABS,ioos:station:wmo:42044:1,2004-08-22T05:00:00Z,26.1914,-97.0507,-2.0,29.5,11111222 
TABS,ioos:station:wmo:42044:1,2004-08-22T05:30:00Z,26.1914,-97.0507,-2.0,29.5,11111222 
TABS,ioos:station:wmo:42044:1,2004-08-22T06:00:00Z,26.1914,-97.0507,-2.0,29.51,11111222 
TABS,ioos:station:wmo:42044:1,2004-08-22T06:30:00Z,26.1914,-97.0507,-2.0,29.51,11111222 
TABS,ioos:station:wmo:42044:1,2004-08-22T07:00:00Z,26.1914,-97.0507,-2.0,29.5,11111222 
TABS,ioos:station:wmo:42044:1,2004-08-22T07:30:00Z,26.1914,-97.0507,-2.0,29.49,11111222 
TABS,ioos:station:wmo:42044:1,2004-08-22T08:00:00Z,26.1914,-97.0507,-2.0,29.48,11111222 
TABS,ioos:station:wmo:42044:1,2004-08-22T08:30:00Z,26.1914,-97.0507,-2.0,29.47,11111222 
TABS,ioos:station:wmo:42044:1,2004-08-22T09:00:00Z,26.1914,-97.0507,-2.0,29.46,11111222 
TABS,ioos:station:wmo:42044:1,2004-08-22T09:30:00Z,26.1914,-97.0507,-2.0,29.45,11111222 
TABS,ioos:station:wmo:42044:1,2004-08-22T10:00:00Z,26.1914,-97.0507,-2.0,29.43,11111222 
TABS,ioos:station:wmo:42044:1,2004-08-22T10:30:00Z,26.1914,-97.0507,-2.0,29.41,11111222 
TABS,ioos:station:wmo:42044:1,2004-08-22T11:00:00Z,26.1914,-97.0507,-2.0,29.38,11111222 
TABS,ioos:station:wmo:42044:1,2004-08-22T11:30:00Z,26.1914,-97.0507,-2.0,29.35,11111222 
TABS,ioos:station:wmo:42044:1,2004-08-22T12:00:00Z,26.1914,-97.0507,-2.0,29.33,11111222 
TABS,ioos:station:wmo:42044:1,2004-08-22T12:30:00Z,26.1914,-97.0507,-2.0,29.31,11111222 
TABS,ioos:station:wmo:42044:1,2004-08-22T13:00:00Z,26.1914,-97.0507,-2.0,29.28,11111222 
TABS,ioos:station:wmo:42044:1,2004-08-22T13:30:00Z,26.1914,-97.0507,-2.0,29.27,11111222 
TABS,ioos:station:wmo:42044:1,2004-08-22T14:00:00Z,26.1914,-97.0507,-2.0,29.24,11111222 
TABS,ioos:station:wmo:42044:1,2004-08-22T14:30:00Z,26.1914,-97.0507,-2.0,29.22,11111222 
TABS,ioos:station:wmo:42044:1,2004-08-22T15:00:00Z,26.1914,-97.0507,-2.0,29.15,11111222 
TABS,ioos:station:wmo:42044:1,2004-08-22T15:30:00Z,26.1914,-97.0507,-2.0,29.14,11111222 
TABS,ioos:station:wmo:42044:1,2004-08-22T16:00:00Z,26.1914,-97.0507,-2.0,29.13,11111222 
TABS,ioos:station:wmo:42044:1,2004-08-22T16:30:00Z,26.1914,-97.0507,-2.0,29.14,11111222 
TABS,ioos:station:wmo:42044:1,2004-08-22T17:00:00Z,26.1914,-97.0507,-2.0,29.16,11111222 
TABS,ioos:station:wmo:42044:1,2004-08-22T17:30:00Z,26.1914,-97.0507,-2.0,29.18,11111222 
TABS,ioos:station:wmo:42044:1,2004-08-22T18:00:00Z,26.1914,-97.0507,-2.0,29.21,11111222 
TABS,ioos:station:wmo:42044:1,2004-08-22T18:30:00Z,26.1914,-97.0507,-2.0,29.26,11111222 
TABS,ioos:station:wmo:42044:1,2004-08-22T19:00:00Z,26.1914,-97.0507,-2.0,29.27,11111222 
TABS,ioos:station:wmo:42044:1,2004-08-22T19:30:00Z,26.1914,-97.0507,-2.0,29.27,11111222 
TABS,ioos:station:wmo:42044:1,2004-08-22T20:00:00Z,26.1914,-97.0507,-2.0,29.28,11111222 
TABS,ioos:station:wmo:42044:1,2004-08-22T20:30:00Z,26.1914,-97.0507,-2.0,29.28,11111222 
TABS,ioos:station:wmo:42044:1,2004-08-22T21:00:00Z,26.1914,-97.0507,-2.0,29.3,11111222 
TABS,ioos:station:wmo:42044:1,2004-08-22T21:30:00Z,26.1914,-97.0507,-2.0,29.33,11111222 
TABS,ioos:station:wmo:42044:1,2004-08-22T22:00:00Z,26.1914,-97.0507,-2.0,29.34,11111222 
TABS,ioos:station:wmo:42044:1,2004-08-22T22:30:00Z,26.1914,-97.0507,-2.0,29.36,11111222 
TABS,ioos:station:wmo:42044:1,2004-08-22T23:00:00Z,26.1914,-97.0507,-2.0,29.36,11111222 
TABS,ioos:station:wmo:42044:1,2004-08-22T23:30:00Z,26.1914,-97.0507,-2.0,29.35,11111222 
TABS,ioos:station:wmo:42044:1,2004-08-23T00:00:00Z,26.1914,-97.0507,-2.0,29.33,11111222 
TABS,ioos:station:wmo:42044:1,2004-08-23T00:30:00Z,26.1914,-97.0507,-2.0,29.31,11111222 
TABS,ioos:station:wmo:42044:1,2004-08-23T01:00:00Z,26.1914,-97.0507,-2.0,29.28,11111222 
TABS,ioos:station:wmo:42044:1,2004-08-23T01:30:00Z,26.1914,-97.0507,-2.0,29.25,11111222 
TABS,ioos:station:wmo:42044:1,2004-08-23T02:00:00Z,26.1914,-97.0507,-2.0,29.21,11111222 
TABS,ioos:station:wmo:42044:1,2004-08-23T02:30:00Z,26.1914,-97.0507,-2.0,29.17,11111222 
TABS,ioos:station:wmo:42044:1,2004-08-23T03:00:00Z,26.1914,-97.0507,-2.0,29.13,11111222 
TABS,ioos:station:wmo:42044:1,2004-08-23T03:30:00Z,26.1914,-97.0507,-2.0,29.11,11111222 
TABS,ioos:station:wmo:42044:1,2004-08-23T04:00:00Z,26.1914,-97.0507,-2.0,29.09,11111222 
TABS,ioos:station:wmo:42044:1,2004-08-23T04:30:00Z,26.1914,-97.0507,-2.0,29.07,11111222 
TABS,ioos:station:wmo:42044:1,2004-08-23T05:00:00Z,26.1914,-97.0507,-2.0,29.05,11111222 
TABS,ioos:station:wmo:42044:1,2004-08-23T05:30:00Z,26.1914,-97.0507,-2.0,28.99,11111222 
TABS,ioos:station:wmo:42044:1,2004-08-23T06:00:00Z,26.1914,-97.0507,-2.0,28.94,11111222 
TABS,ioos:station:wmo:42044:1,2004-08-23T06:30:00Z,26.1914,-97.0507,-2.0,28.88,11111222 
TABS,ioos:station:wmo:42044:1,2004-08-23T07:00:00Z,26.1914,-97.0507,-2.0,28.84,11111222 
TABS,ioos:station:wmo:42044:1,2004-08-23T07:30:00Z,26.1914,-97.0507,-2.0,28.79,11111222 
TABS,ioos:station:wmo:42044:1,2004-08-23T08:00:00Z,26.1914,-97.0507,-2.0,28.73,11111222 
TABS,ioos:station:wmo:42044:1,2004-08-23T08:30:00Z,26.1914,-97.0507,-2.0,28.68,11111222 
TABS,ioos:station:wmo:42044:1,2004-08-23T09:00:00Z,26.1914,-97.0507,-2.0,28.62,11111222 
TABS,ioos:station:wmo:42044:1,2004-08-23T09:30:00Z,26.1914,-97.0507,-2.0,28.52,11111222 
TABS,ioos:station:wmo:42044:1,2004-08-23T10:00:00Z,26.1914,-97.0507,-2.0,28.36,11111222 
TABS,ioos:station:wmo:42044:1,2004-08-23T10:30:00Z,26.1914,-97.0507,-2.0,28.21,11111222 
TABS,ioos:station:wmo:42044:1,2004-08-23T11:00:00Z,26.1914,-97.0507,-2.0,28.16,11111222 
TABS,ioos:station:wmo:42044:1,2004-08-23T11:30:00Z,26.1914,-97.0507,-2.0,28.06,11111222 
TABS,ioos:station:wmo:42044:1,2004-08-23T12:00:00Z,26.1914,-97.0507,-2.0,27.94,11111222 
TABS,ioos:station:wmo:42044:1,2004-08-23T12:30:00Z,26.1914,-97.0507,-2.0,27.85,11111222 
TABS,ioos:station:wmo:42044:1,2004-08-23T13:00:00Z,26.1914,-97.0507,-2.0,27.77,11111222 
TABS,ioos:station:wmo:42044:1,2004-08-23T13:30:00Z,26.1914,-97.0507,-2.0,27.73,11111222 
TABS,ioos:station:wmo:42044:1,2004-08-23T14:00:00Z,26.1914,-97.0507,-2.0,27.67,11111222 
TABS,ioos:station:wmo:42044:1,2004-08-23T14:30:00Z,26.1914,-97.0507,-2.0,27.62,11111222 
TABS,ioos:station:wmo:42044:1,2004-08-23T15:00:00Z,26.1914,-97.0507,-2.0,27.54,11111222 
TABS,ioos:station:wmo:42044:1,2004-08-23T15:30:00Z,26.1914,-97.0507,-2.0,27.53,11111222 
TABS,ioos:station:wmo:42044:1,2004-08-23T16:00:00Z,26.1914,-97.0507,-2.0,27.57,11111222 
TABS,ioos:station:wmo:42044:1,2004-08-23T16:30:00Z,26.1914,-97.0507,-2.0,27.53,11111222 
TABS,ioos:station:wmo:42044:1,2004-08-23T17:00:00Z,26.1914,-97.0507,-2.0,27.55,11111222 
TABS,ioos:station:wmo:42044:1,2004-08-23T17:30:00Z,26.1914,-97.0507,-2.0,27.59,11111222 
TABS,ioos:station:wmo:42044:1,2004-08-23T18:00:00Z,26.1914,-97.0507,-2.0,27.66,11111222 
TABS,ioos:station:wmo:42044:1,2004-08-23T18:30:00Z,26.1914,-97.0507,-2.0,27.69,11111222 
TABS,ioos:station:wmo:42044:1,2004-08-23T19:00:00Z,26.1914,-97.0507,-2.0,27.67,11111222 
TABS,ioos:station:wmo:42044:1,2004-08-23T19:30:00Z,26.1914,-97.0507,-2.0,27.65,11111222 
TABS,ioos:station:wmo:42044:1,2004-08-23T20:00:00Z,26.1914,-97.0507,-2.0,27.65,11111222 
TABS,ioos:station:wmo:42044:1,2004-08-23T20:30:00Z,26.1914,-97.0507,-2.0,27.64,11111222 
TABS,ioos:station:wmo:42044:1,2004-08-23T21:00:00Z,26.1914,-97.0507,-2.0,27.58,11111222 
TABS,ioos:station:wmo:42044:1,2004-08-23T21:30:00Z,26.1914,-97.0507,-2.0,27.59,11111222 
TABS,ioos:station:wmo:42044:1,2004-08-23T22:00:00Z,26.1914,-97.0507,-2.0,27.58,11111222 
TABS,ioos:station:wmo:42044:1,2004-08-23T22:30:00Z,26.1914,-97.0507,-2.0,27.55,11111222 
TABS,ioos:station:wmo:42044:1,2004-08-23T23:00:00Z,26.1914,-97.0507,-2.0,27.52,11111222 
TABS,ioos:station:wmo:42044:1,2004-08-23T23:30:00Z,26.1914,-97.0507,-2.0,27.5,11111222 
TABS,ioos:station:wmo:42044:1,2004-08-24T00:00:00Z,26.1914,-97.0507,-2.0,27.48,11111222 
TABS,ioos:station:wmo:42044:1,2004-08-24T00:30:00Z,26.1914,-97.0507,-2.0,27.44,11111222 
TABS,ioos:station:wmo:42044:1,2004-08-24T01:00:00Z,26.1914,-97.0507,-2.0,27.42,11111222 
TABS,ioos:station:wmo:42044:1,2004-08-24T01:30:00Z,26.1914,-97.0507,-2.0,27.39,11111222 
TABS,ioos:station:wmo:42044:1,2004-08-24T02:00:00Z,26.1914,-97.0507,-2.0,27.35,11111222 
TABS,ioos:station:wmo:42044:1,2004-08-24T02:30:00Z,26.1914,-97.0507,-2.0,27.34,11111222 
TABS,ioos:station:wmo:42044:1,2004-08-24T03:00:00Z,26.1914,-97.0507,-2.0,27.34,11111222 
TABS,ioos:station:wmo:42044:1,2004-08-24T03:30:00Z,26.1914,-97.0507,-2.0,27.34,11111222 
TABS,ioos:station:wmo:42044:1,2004-08-24T04:00:00Z,26.1914,-97.0507,-2.0,27.33,11111222 
TABS,ioos:station:wmo:42044:1,2004-08-24T04:30:00Z,26.1914,-97.0507,-2.0,27.31,11111222 
TABS,ioos:station:wmo:42044:1,2004-08-24T05:00:00Z,26.1914,-97.0507,-2.0,27.3,11111222 
TABS,ioos:station:wmo:42044:1,2004-08-24T05:30:00Z,26.1914,-97.0507,-2.0,27.3,11111222 